Вернуться в каталог

COSMOS 917 DEB

АктивенHEO
NORAD 27888·DEBRIS·🇷🇺 Russia

Запущен Jun 16, 1977 с Plesetsk Cosmodrome

Loading…

Ближайшие Пролёты (ближайшие 24 часа)

TLE

СвежийSource: Space-Track

Эпоха: Sep 13, 2026, 07:51 UTC

1 27888U 77047L   26256.32713304 -.00000414  00000-0  76351-3 0  9997
2 27888  60.0637 211.3544 7459555  58.4213 353.3202  2.02135150219986

Отслеживайте COSMOS 917 DEB в реальном времени с AllMySat

Download on the App Store